Location: Auckland
(36.8670°S, 174.7670°E)
Time: 18:34:32
(UTC+12:00)

Tiros 1 despin weight - Pass Details

Date: 20 July 2019
Orbit: 594 x 642 km, 48.2° (Epoch: 24 August)

Event Time Altitude Azimuth Distance (km) Brightness Sun altitude
Rises 23:58:33 0° 321° (NW) 2,826 - -72.8°
Reaches altitude 10° 00:00:52 10° 326° (NNW) 1,929 - -73.0°
Maximum altitude 00:05:09 49° 41° (NE) 776 - -73.3°
Drops below altitude 10° 00:09:28 10° 115° (ESE) 1,954 - -73.5°
Sets 00:11:50 0° 120° (ESE) 2,867 - -73.6°
